• Em Portugal
  • Lista de países
  • Para 7 dias
  • Temperatura da água
  • Mapas de satélite
  • Mapa do tempo
  • Widgets de tempo
  • user-avatar
    Iniciar Sessão

    Previsão horária em Janiki

    Hoje, 18 Setembro, Terça-feira

    Tempo Temperatura Precipitação Vento Pressão Humidade
    00:00 +16°C° 0 mm 1 m/s 751 mmHg 80%
    01:00 +15°C° 0 mm 1 m/s 750 mmHg 81%
    02:00 +15°C° 0 mm 1 m/s 750 mmHg 82%
    03:00 +15°C° 0 mm 1 m/s 750 mmHg 83%
    04:00 +15°C° 0 mm 1 m/s 750 mmHg 84%
    05:00 +15°C° 0 mm 1 m/s 750 mmHg 82%
    06:00 +16°C° 0 mm 1 m/s 750 mmHg 79%
    07:00 +18°C° 0 mm 1 m/s 751 mmHg 75%
    08:00 +19°C° 0 mm 2 m/s 751 mmHg 69%
    09:00 +21°C° 0 mm 2 m/s 751 mmHg 63%
    10:00 +24°C° 0 mm 2 m/s 751 mmHg 57%
    11:00 +25°C° 0 mm 2 m/s 751 mmHg 54%
    12:00 +26°C° 0 mm 2 m/s 750 mmHg 51%
    13:00 +27°C° 0 mm 3 m/s 750 mmHg 49%
    14:00 +26°C° 0 mm 3 m/s 750 mmHg 51%
    15:00 +26°C° 0 mm 2 m/s 750 mmHg 53%
    16:00 +26°C° 0 mm 2 m/s 749 mmHg 56%
    17:00 +24°C° 0 mm 2 m/s 749 mmHg 61%
    18:00 +21°C° 0 mm 2 m/s 749 mmHg 66%
    19:00 +19°C° 0 mm 2 m/s 749 mmHg 72%
    20:00 +19°C° 0 mm 2 m/s 749 mmHg 73%
    21:00 +18°C° 0 mm 2 m/s 750 mmHg 74%
    22:00 +17°C° 0 mm 2 m/s 750 mmHg 75%
    23:00 +17°C° 0 mm 2 m/s 750 mmHg 75%

    Amanhã, 19 Setembro, Quarta-feira

    Tempo Temperatura Precipitação Vento Pressão Humidade
    00:00 +17°C° 0 mm 2 m/s 750 mmHg 76%
    01:00 +16°C° 0 mm 2 m/s 750 mmHg 76%
    02:00 +16°C° 0 mm 2 m/s 750 mmHg 77%
    03:00 +15°C° 0 mm 2 m/s 750 mmHg 78%
    04:00 +15°C° 0 mm 2 m/s 750 mmHg 79%
    05:00 +16°C° 0 mm 2 m/s 750 mmHg 77%
    06:00 +17°C° 0 mm 2 m/s 750 mmHg 75%
    07:00 +17°C° 0 mm 2 m/s 750 mmHg 73%
    08:00 +20°C° 0 mm 2 m/s 750 mmHg 66%
    09:00 +23°C° 0 mm 2 m/s 750 mmHg 59%
    10:00 +25°C° 0 mm 2 m/s 750 mmHg 52%
    11:00 +26°C° 0 mm 2 m/s 750 mmHg 49%
    12:00 +27°C° 0 mm 2 m/s 750 mmHg 46%
    13:00 +28°C° 0 mm 2 m/s 750 mmHg 42%
    14:00 +27°C° 0 mm 2 m/s 750 mmHg 44%
    15:00 +27°C° 0 mm 2 m/s 750 mmHg 46%
    16:00 +27°C° 0 mm 1 m/s 749 mmHg 48%
    17:00 +25°C° 0 mm 1 m/s 750 mmHg 52%
    18:00 +23°C° 0 mm 1 m/s 750 mmHg 56%
    19:00 +21°C° 0 mm 1 m/s 750 mmHg 61%
    20:00 +19°C° 0 mm 2 m/s 750 mmHg 62%
    21:00 +19°C° 0 mm 2 m/s 750 mmHg 64%
    22:00 +18°C° 0 mm 2 m/s 750 mmHg 66%
    23:00 +18°C° 0 mm 2 m/s 750 mmHg 68%

    Depois de amanhã, 20 Setembro, Quinta-feira

    Tempo Temperatura Precipitação Vento Pressão Humidade
    00:00 +17°C° 0 mm 2 m/s 750 mmHg 69%
    01:00 +18°C° 0 mm 1 m/s 750 mmHg 71%
    02:00 +16°C° 0 mm 1 m/s 750 mmHg 72%
    03:00 +16°C° 0 mm 1 m/s 750 mmHg 73%
    04:00 +16°C° 0 mm 1 m/s 750 mmHg 74%
    05:00 +18°C° 0 mm 1 m/s 750 mmHg 73%
    06:00 +18°C° 0 mm 1 m/s 750 mmHg 71%
    07:00 +19°C° 0 mm 1 m/s 750 mmHg 69%
    08:00 +21°C° 0 mm 1 m/s 750 mmHg 62%
    09:00 +23°C° 0 mm 2 m/s 750 mmHg 56%
    10:00 +26°C° 0 mm 2 m/s 750 mmHg 49%
    11:00 +26°C° 0 mm 2 m/s 750 mmHg 45%
    12:00 +27°C° 0 mm 2 m/s 750 mmHg 42%
    13:00 +28°C° 0 mm 2 m/s 750 mmHg 38%
    14:00 +28°C° 0 mm 1 m/s 749 mmHg 40%
    15:00 +28°C° 0 mm 1 m/s 749 mmHg 42%
    16:00 +27°C° 0 mm 1 m/s 749 mmHg 44%
    17:00 +25°C° 0 mm 1 m/s 749 mmHg 49%
    18:00 +23°C° 0 mm 1 m/s 749 mmHg 53%
    19:00 +21°C° 0 mm 1 m/s 749 mmHg 57%
    20:00 +20°C° 0 mm 2 m/s 749 mmHg 60%
    21:00 +19°C° 0 mm 2 m/s 749 mmHg 62%
    22:00 +19°C° 0 mm 2 m/s 749 mmHg 65%
    23:00 +18°C° 0 mm 2 m/s 749 mmHg 68%

    21 Setembro, Sexta-feira

    Tempo Temperatura Precipitação Vento Pressão Humidade
    00:00 +18°C° 0 mm 2 m/s 749 mmHg 71%
    01:00 +17°C° 0 mm 2 m/s 748 mmHg 74%
    02:00 +17°C° 0 mm 2 m/s 748 mmHg 76%
    03:00 +17°C° 0 mm 2 m/s 748 mmHg 78%
    04:00 +16°C° 0 mm 2 m/s 748 mmHg 79%
    05:00 +17°C° 0 mm 2 m/s 748 mmHg 77%
    06:00 +18°C° 0 mm 2 m/s 748 mmHg 75%
    07:00 +18°C° 0 mm 2 m/s 748 mmHg 72%
    08:00 +20°C° 0 mm 2 m/s 748 mmHg 66%
    09:00 +22°C° 0 mm 3 m/s 748 mmHg 59%
    10:00 +25°C° 0 mm 3 m/s 747 mmHg 52%
    11:00 +26°C° 0 mm 3 m/s 747 mmHg 49%
    12:00 +27°C° 0 mm 4 m/s 747 mmHg 46%
    13:00 +28°C° 0 mm 4 m/s 746 mmHg 42%
    14:00 +28°C° 0 mm 4 m/s 746 mmHg 45%
    15:00 +28°C° 0 mm 3 m/s 745 mmHg 47%
    16:00 +27°C° 0 mm 3 m/s 745 mmHg 49%
    17:00 +26°C° 0 mm 4 m/s 744 mmHg 53%
    18:00 +23°C° 0 mm 4 m/s 744 mmHg 57%
    19:00 +21°C° 0 mm 4 m/s 744 mmHg 60%
    20:00 +21°C° 0 mm 4 m/s 744 mmHg 60%
    21:00 +20°C° 0 mm 4 m/s 744 mmHg 60%
    22:00 +20°C° 0 mm 4 m/s 743 mmHg 60%
    23:00 +20°C° 0 mm 4 m/s 743 mmHg 60%

    22 Setembro, Sábado

    Tempo Temperatura Precipitação Vento Pressão Humidade
    00:00 +19°C° 0 mm 4 m/s 742 mmHg 60%
    01:00 +19°C° 0 mm 4 m/s 742 mmHg 60%
    02:00 +19°C° 0 mm 4 m/s 742 mmHg 60%
    03:00 +18°C° 0 mm 4 m/s 742 mmHg 59%
    04:00 +18°C° 0 mm 4 m/s 742 mmHg 59%
    05:00 +16°C° 0 mm 5 m/s 743 mmHg 62%
    06:00 +15°C° 0 mm 6 m/s 744 mmHg 66%
    07:00 +15°C° 0 mm 7 m/s 745 mmHg 70%
    08:00 +14°C° 0.1 mm 7 m/s 746 mmHg 71%
    09:00 +13°C° 0.1 mm 6 m/s 747 mmHg 72%
    10:00 +12°C° 0.1 mm 5 m/s 748 mmHg 74%
    11:00 +12°C° 0.4 mm 5 m/s 748 mmHg 74%
    12:00 +12°C° 0.4 mm 4 m/s 748 mmHg 75%
    13:00 +12°C° 0.4 mm 4 m/s 748 mmHg 76%
    14:00 +12°C° 0.3 mm 4 m/s 748 mmHg 75%
    15:00 +12°C° 0.3 mm 3 m/s 748 mmHg 74%
    16:00 +12°C° 0.3 mm 3 m/s 748 mmHg 73%
    17:00 +11°C° 0 mm 3 m/s 748 mmHg 75%
    18:00 +10°C° 0 mm 2 m/s 749 mmHg 76%
    19:00 +10°C° 0 mm 2 m/s 749 mmHg 78%
    20:00 +9°C° 0 mm 3 m/s 749 mmHg 79%
    21:00 +9°C° 0 mm 3 m/s 749 mmHg 80%
    22:00 +9°C° 0 mm 3 m/s 749 mmHg 81%
    23:00 +9°C° 0 mm 3 m/s 749 mmHg 81%

    23 Setembro, Domingo

    Tempo Temperatura Precipitação Vento Pressão Humidade
    00:00 +8°C° 0 mm 3 m/s 749 mmHg 81%
    01:00 +8°C° 0 mm 3 m/s 749 mmHg 81%
    02:00 +8°C° 0 mm 3 m/s 749 mmHg 81%
    03:00 +8°C° 0 mm 3 m/s 749 mmHg 82%
    04:00 +7°C° 0 mm 3 m/s 749 mmHg 83%
    05:00 +8°C° 0 mm 3 m/s 749 mmHg 80%
    06:00 +9°C° 0 mm 3 m/s 749 mmHg 77%
    07:00 +8°C° 0 mm 4 m/s 749 mmHg 74%
    08:00 +11°C° 0 mm 4 m/s 749 mmHg 66%
    09:00 +13°C° 0 mm 4 m/s 749 mmHg 59%
    10:00 +15°C° 0 mm 4 m/s 749 mmHg 51%
    11:00 +15°C° 0 mm 4 m/s 748 mmHg 48%
    12:00 +17°C° 0 mm 4 m/s 748 mmHg 44%
    13:00 +18°C° 0 mm 4 m/s 747 mmHg 41%
    14:00 +18°C° 0 mm 4 m/s 747 mmHg 43%
    15:00 +17°C° 0 mm 3 m/s 746 mmHg 45%
    16:00 +17°C° 0 mm 3 m/s 746 mmHg 47%
    17:00 +16°C° 0 mm 3 m/s 745 mmHg 50%
    18:00 +14°C° 0 mm 4 m/s 745 mmHg 53%
    19:00 +13°C° 0 mm 5 m/s 744 mmHg 57%
    20:00 +13°C° 0 mm 5 m/s 743 mmHg 56%
    21:00 +13°C° 0 mm 6 m/s 743 mmHg 54%
    22:00 +13°C° 0 mm 6 m/s 742 mmHg 53%
    23:00 +13°C° 0 mm 6 m/s 741 mmHg 54%
    Mostrar mais